Weather History for Mather AFB, CA

Change the Weather History Date:

Friday, May 17, 2013

  Actual Average Record
Temperature  
Mean Temperature 60 °F -  
Max Temperature 73 °F 79 °F 100 °F (2008)
Min Temperature 48 °F 49 °F 46 °F (2001)
Degree Days  
Heating Degree Days 4    
Growing Degree Days 10 (Base 50)    
Moisture  
Dew Point 42 °F    
Average Humidity 61    
Maximum Humidity 87    
Minimum Humidity 25    
Precipitation  
Precipitation 0.00 in - - ()
Sea Level Pressure  
Sea Level Pressure 29.98 in    
Wind  
Wind Speed 8 mph (SSE)    
Max Wind Speed 14 mph    
Max Gust Speed 18 mph    
Visibility 10 miles    
Events      
Averages and records for this station are not official NWS values.
T = Trace of Precipitation, MM = Missing Value Source: NWS Daily Summary

Daily Weather History Graph

Daily Weather History Graph

Search for Another Location

Airport:

Trip Planner

Search our weather history database for the weather conditions in past years. The results will help you decide how hot, cold, wet, or windy it might be!

Date:

Astronomy

May. 17, 2013 Rise Set
Actual Time 5:51 AM PDT 8:12 PM PDT
Civil Twilight 5:21 AM PDT 8:42 PM PDT
Nautical Twilight 4:44 AM PDT 9:19 PM PDT
Astronomical Twilight 4:03 AM PDT 10:00 PM PDT
Moon 12:27 PM PDT (5/17) 1:09 AM PDT (5/17)
Length of Visible Light 15h 20m
Length of Day
14h 20m
Waxing Crescent, 46% of the Moon is Illuminated
May 17
Waxing Crescent
May 17
First Quarter
May 24
Full
May 31
Last Quarter
Jun 8
New

Hourly Weather History & Observations

Time (PDT) Temp. Dew Point Humidity Pressure Visibility Wind Dir Wind Speed Gust Speed Precip Events Conditions
12:51 AM 51.8 °F 46.4 °F 82% 29.96 in 10.0 mi SE 9.2 mph - N/A   Scattered Clouds
2:45 AM 50.0 °F 44.6 °F 82% 29.95 in 10.0 mi SE 9.2 mph - N/A   Scattered Clouds
2:55 AM 50.0 °F 44.6 °F 82% 29.96 in 10.0 mi SE 9.2 mph - N/A   Scattered Clouds
3:45 AM 50.0 °F 44.6 °F 82% 29.95 in 10.0 mi SE 8.1 mph - N/A   Scattered Clouds
4:56 AM 50.0 °F 44.6 °F 82% 29.95 in 10.0 mi SSE 8.1 mph - N/A   Scattered Clouds
5:45 AM 48.2 °F 44.6 °F 87% 29.96 in 10.0 mi SE 5.8 mph - N/A   Partly Cloudy
6:47 AM 48.2 °F 44.6 °F 87% 29.97 in 10.0 mi ESE 5.8 mph - N/A   Partly Cloudy
7:45 AM 53.6 °F 44.6 °F 72% 29.98 in 10.0 mi SE 10.4 mph - N/A   Clear
8:46 AM 57.2 °F 44.6 °F 63% 30.00 in 10.0 mi SSE 6.9 mph - N/A   Partly Cloudy
9:46 AM 60.8 °F 46.4 °F 59% 29.99 in 10.0 mi South 8.1 mph - N/A   Partly Cloudy
10:45 AM 64.4 °F 46.4 °F 52% 29.99 in 10.0 mi SSW 6.9 mph - N/A   Partly Cloudy
12:45 PM 69.8 °F 42.8 °F 38% 29.99 in 10.0 mi SW 5.8 mph 16.1 mph N/A   Scattered Clouds
1:45 PM 71.6 °F 41.0 °F 33% 29.99 in 10.0 mi SSW 6.9 mph - N/A   Partly Cloudy
2:46 PM 73.4 °F 39.2 °F 29% 29.98 in 10.0 mi SW 6.9 mph - N/A   Partly Cloudy
3:45 PM 73.4 °F 35.6 °F 25% 29.97 in 10.0 mi WSW 9.2 mph - N/A   Clear
5:45 PM 73.4 °F 39.2 °F 29% 29.96 in 10.0 mi South 9.2 mph 16.1 mph N/A   Clear
6:55 PM 68.0 °F 41.0 °F 37% 29.98 in 10.0 mi SSW 13.8 mph 18.4 mph N/A   Clear
8:45 PM 57.2 °F 39.2 °F 51% 30.01 in 10.0 mi South 5.8 mph - N/A   Clear
9:45 PM 53.6 °F 39.2 °F 58% 30.03 in 10.0 mi South 6.9 mph - N/A   Clear
10:55 PM 48.2 °F 39.2 °F 71% 30.05 in 10.0 mi SE 6.9 mph - N/A   Clear
11:46 PM 48.2 °F 39.2 °F 71% 30.04 in 10.0 mi SE 6.9 mph - N/A   Clear